owner,sensor,date,latitude,longitude,vertical_datum,wind_speed,wind_to_direction,wind_speed_of_gust,qcFlag 
DISL,ioos:station:DISL:CATA:1,2014-02-01T00:00:00Z,30.3085,-88.1395,0.0,3.78,136.0,-9999.0,'1111122,1111122,1111122' 
DISL,ioos:station:DISL:CATA:1,2014-02-01T00:30:00Z,30.3085,-88.1395,0.0,2.72,151.8,-9999.0,'1111122,1111122,1111122' 
DISL,ioos:station:DISL:CATA:1,2014-02-01T01:00:00Z,30.3085,-88.1395,0.0,2.12,134.5,-9999.0,'1111122,1111122,1111122' 
DISL,ioos:station:DISL:CATA:1,2014-02-01T01:30:00Z,30.3085,-88.1395,0.0,3.56,114.0,-9999.0,'1111122,1111122,1111122' 
DISL,ioos:station:DISL:CATA:1,2014-02-01T02:00:00Z,30.3085,-88.1395,0.0,3.98,121.1,-9999.0,'1111122,1111122,1111122' 
DISL,ioos:station:DISL:CATA:1,2014-02-01T02:30:00Z,30.3085,-88.1395,0.0,3.79,107.6,-9999.0,'1111122,1111122,1111122' 
DISL,ioos:station:DISL:CATA:1,2014-02-01T03:00:00Z,30.3085,-88.1395,0.0,2.81,88.7,-9999.0,'1111122,1111122,1111122' 
DISL,ioos:station:DISL:CATA:1,2014-02-01T03:30:00Z,30.3085,-88.1395,0.0,2.38,62.2,-9999.0,'1111122,1111122,1111122' 
DISL,ioos:station:DISL:CATA:1,2014-02-01T04:00:00Z,30.3085,-88.1395,0.0,2.12,48.04,-9999.0,'1111122,1111122,1111122' 
DISL,ioos:station:DISL:CATA:1,2014-02-01T04:30:00Z,30.3085,-88.1395,0.0,2.02,56.29,-9999.0,'1111122,1111122,1111122' 
DISL,ioos:station:DISL:CATA:1,2014-02-01T05:00:00Z,30.3085,-88.1395,0.0,2.13,49.68,-9999.0,'1111122,1111122,1111122' 
DISL,ioos:station:DISL:CATA:1,2014-02-01T05:30:00Z,30.3085,-88.1395,0.0,2.51,93.0,-9999.0,'1111122,1111122,1111122' 
DISL,ioos:station:DISL:CATA:1,2014-02-01T06:00:00Z,30.3085,-88.1395,0.0,1.24,348.7,-9999.0,'1111122,1111122,1111122' 
DISL,ioos:station:DISL:CATA:1,2014-02-01T06:30:00Z,30.3085,-88.1395,0.0,2.33,89.0,-9999.0,'1111122,1111122,1111122' 
DISL,ioos:station:DISL:CATA:1,2014-02-01T07:00:00Z,30.3085,-88.1395,0.0,1.65,59.34,-9999.0,'1111122,1111122,1111122' 
DISL,ioos:station:DISL:CATA:1,2014-02-01T07:30:00Z,30.3085,-88.1395,0.0,2.04,59.29,-9999.0,'1111122,1111122,1111122' 
DISL,ioos:station:DISL:CATA:1,2014-02-01T08:00:00Z,30.3085,-88.1395,0.0,2.07,62.44,-9999.0,'1111122,1111122,1111122' 
DISL,ioos:station:DISL:CATA:1,2014-02-01T08:30:00Z,30.3085,-88.1395,0.0,2.68,61.55,-9999.0,'1111122,1111122,1111122' 
DISL,ioos:station:DISL:CATA:1,2014-02-01T09:00:00Z,30.3085,-88.1395,0.0,2.56,65.01,-9999.0,'1111122,1111122,1111122' 
DISL,ioos:station:DISL:CATA:1,2014-02-01T09:30:00Z,30.3085,-88.1395,0.0,2.92,58.32,-9999.0,'1111122,1111122,1111122' 
DISL,ioos:station:DISL:CATA:1,2014-02-01T10:00:00Z,30.3085,-88.1395,0.0,2.93,55.38,-9999.0,'1111122,1111122,1111122' 
DISL,ioos:station:DISL:CATA:1,2014-02-01T10:30:00Z,30.3085,-88.1395,0.0,3.08,53.51,-9999.0,'1111122,1111122,1111122' 
DISL,ioos:station:DISL:CATA:1,2014-02-01T11:00:00Z,30.3085,-88.1395,0.0,4.08,52.19,-9999.0,'1111122,1111122,1111122' 
DISL,ioos:station:DISL:CATA:1,2014-02-01T11:30:00Z,30.3085,-88.1395,0.0,4.06,51.51,-9999.0,'1111122,1111122,1111122' 
DISL,ioos:station:DISL:CATA:1,2014-02-01T12:00:00Z,30.3085,-88.1395,0.0,3.3,68.12,-9999.0,'1111122,1111122,1111122' 
DISL,ioos:station:DISL:CATA:1,2014-02-01T12:30:00Z,30.3085,-88.1395,0.0,4.47,90.1,-9999.0,'1111122,1111122,1111122' 
DISL,ioos:station:DISL:CATA:1,2014-02-01T13:00:00Z,30.3085,-88.1395,0.0,3.58,94.3,-9999.0,'1111122,1111122,1111122' 
DISL,ioos:station:DISL:CATA:1,2014-02-01T13:30:00Z,30.3085,-88.1395,0.0,2.94,75.25,-9999.0,'1111122,1111122,1111122' 
DISL,ioos:station:DISL:CATA:1,2014-02-01T14:00:00Z,30.3085,-88.1395,0.0,2.82,80.8,-9999.0,'1111122,1111122,1111122' 
DISL,ioos:station:DISL:CATA:1,2014-02-01T14:30:00Z,30.3085,-88.1395,0.0,4.42,107.5,-9999.0,'1111122,1111122,1111122' 
DISL,ioos:station:DISL:CATA:1,2014-02-01T15:00:00Z,30.3085,-88.1395,0.0,3.75,119.2,-9999.0,'1111122,1111122,1111122' 
DISL,ioos:station:DISL:CATA:1,2014-02-01T15:30:00Z,30.3085,-88.1395,0.0,2.76,102.5,-9999.0,'1111122,1111122,1111122' 
DISL,ioos:station:DISL:CATA:1,2014-02-01T16:00:00Z,30.3085,-88.1395,0.0,2.88,75.95,-9999.0,'1111122,1111122,1111122' 
DISL,ioos:station:DISL:CATA:1,2014-02-01T16:30:00Z,30.3085,-88.1395,0.0,2.42,71.78,-9999.0,'1111122,1111122,1111122' 
DISL,ioos:station:DISL:CATA:1,2014-02-01T17:00:00Z,30.3085,-88.1395,0.0,2.19,85.6,-9999.0,'1111122,1111122,1111122' 
DISL,ioos:station:DISL:CATA:1,2014-02-01T17:30:00Z,30.3085,-88.1395,0.0,2.23,109.7,-9999.0,'1111122,1111122,1111122' 
DISL,ioos:station:DISL:CATA:1,2014-02-01T18:00:00Z,30.3085,-88.1395,0.0,2.24,112.9,-9999.0,'1111122,1111122,1111122' 
DISL,ioos:station:DISL:CATA:1,2014-02-01T18:30:00Z,30.3085,-88.1395,0.0,4.02,138.0,-9999.0,'1111122,1111122,1111122' 
DISL,ioos:station:DISL:CATA:1,2014-02-01T19:00:00Z,30.3085,-88.1395,0.0,4.49,135.7,-9999.0,'1111122,1111122,1111122' 
DISL,ioos:station:DISL:CATA:1,2014-02-01T19:30:00Z,30.3085,-88.1395,0.0,4.2,140.8,-9999.0,'1111122,1111122,1111122' 
DISL,ioos:station:DISL:CATA:1,2014-02-01T20:00:00Z,30.3085,-88.1395,0.0,3.84,132.8,-9999.0,'1111122,1111122,1111122' 
DISL,ioos:station:DISL:CATA:1,2014-02-01T20:30:00Z,30.3085,-88.1395,0.0,3.79,139.1,-9999.0,'1111122,1111122,1111122' 
DISL,ioos:station:DISL:CATA:1,2014-02-01T21:00:00Z,30.3085,-88.1395,0.0,3.88,131.7,-9999.0,'1111122,1111122,1111122' 
DISL,ioos:station:DISL:CATA:1,2014-02-01T21:30:00Z,30.3085,-88.1395,0.0,1.68,90.9,-9999.0,'1111122,1111122,1111122' 
DISL,ioos:station:DISL:CATA:1,2014-02-01T22:00:00Z,30.3085,-88.1395,0.0,2.12,101.2,-9999.0,'1111122,1111122,1111122' 
DISL,ioos:station:DISL:CATA:1,2014-02-01T22:30:00Z,30.3085,-88.1395,0.0,2.57,105.9,-9999.0,'1111122,1111122,1111122' 
DISL,ioos:station:DISL:CATA:1,2014-02-01T23:00:00Z,30.3085,-88.1395,0.0,2.57,102.4,-9999.0,'1111122,1111122,1111122' 
DISL,ioos:station:DISL:CATA:1,2014-02-01T23:30:00Z,30.3085,-88.1395,0.0,2.32,87.5,-9999.0,'1111122,1111122,1111122' 
DISL,ioos:station:DISL:CATA:1,2014-02-02T00:00:00Z,30.3085,-88.1395,0.0,2.3,81.4,-9999.0,'1111122,1111122,1111122' 
DISL,ioos:station:DISL:CATA:1,2014-02-02T00:30:00Z,30.3085,-88.1395,0.0,4.13,86.0,-9999.0,'1111122,1111122,1111122' 
DISL,ioos:station:DISL:CATA:1,2014-02-02T01:00:00Z,30.3085,-88.1395,0.0,4.18,81.6,-9999.0,'1111122,1111122,1111122' 
DISL,ioos:station:DISL:CATA:1,2014-02-02T01:30:00Z,30.3085,-88.1395,0.0,3.35,58.73,-9999.0,'1111122,1111122,1111122' 
DISL,ioos:station:DISL:CATA:1,2014-02-02T02:00:00Z,30.3085,-88.1395,0.0,3.56,59.42,-9999.0,'1111122,1111122,1111122' 
DISL,ioos:station:DISL:CATA:1,2014-02-02T02:30:00Z,30.3085,-88.1395,0.0,3.37,63.88,-9999.0,'1111122,1111122,1111122' 
DISL,ioos:station:DISL:CATA:1,2014-02-02T03:00:00Z,30.3085,-88.1395,0.0,3.7,71.95,-9999.0,'1111122,1111122,1111122' 
DISL,ioos:station:DISL:CATA:1,2014-02-02T03:30:00Z,30.3085,-88.1395,0.0,4.0,85.2,-9999.0,'1111122,1111122,1111122' 
DISL,ioos:station:DISL:CATA:1,2014-02-02T04:00:00Z,30.3085,-88.1395,0.0,4.82,92.8,-9999.0,'1111122,1111122,1111122' 
DISL,ioos:station:DISL:CATA:1,2014-02-02T04:30:00Z,30.3085,-88.1395,0.0,3.87,97.1,-9999.0,'1111122,1111122,1111122' 
DISL,ioos:station:DISL:CATA:1,2014-02-02T05:00:00Z,30.3085,-88.1395,0.0,1.83,104.4,-9999.0,'1111122,1111122,1111122' 
DISL,ioos:station:DISL:CATA:1,2014-02-02T05:30:00Z,30.3085,-88.1395,0.0,1.65,100.2,-9999.0,'1111122,1111122,1111122' 
DISL,ioos:station:DISL:CATA:1,2014-02-02T06:00:00Z,30.3085,-88.1395,0.0,2.66,99.9,-9999.0,'1111122,1111122,1111122' 
DISL,ioos:station:DISL:CATA:1,2014-02-02T06:30:00Z,30.3085,-88.1395,0.0,1.91,100.4,-9999.0,'1111122,1111122,1111122' 
DISL,ioos:station:DISL:CATA:1,2014-02-02T07:00:00Z,30.3085,-88.1395,0.0,2.16,79.55,-9999.0,'1111122,1111122,1111122' 
DISL,ioos:station:DISL:CATA:1,2014-02-02T07:30:00Z,30.3085,-88.1395,0.0,2.2,77.83,-9999.0,'1111122,1111122,1111122' 
DISL,ioos:station:DISL:CATA:1,2014-02-02T08:00:00Z,30.3085,-88.1395,0.0,2.33,95.2,-9999.0,'1111122,1111122,1111122' 
DISL,ioos:station:DISL:CATA:1,2014-02-02T08:30:00Z,30.3085,-88.1395,0.0,3.22,81.5,-9999.0,'1111122,1111122,1111122' 
DISL,ioos:station:DISL:CATA:1,2014-02-02T09:00:00Z,30.3085,-88.1395,0.0,3.7,72.08,-9999.0,'1111122,1111122,1111122' 
DISL,ioos:station:DISL:CATA:1,2014-02-02T09:30:00Z,30.3085,-88.1395,0.0,3.84,75.4,-9999.0,'1111122,1111122,1111122' 
DISL,ioos:station:DISL:CATA:1,2014-02-02T10:00:00Z,30.3085,-88.1395,0.0,4.13,74.92,-9999.0,'1111122,1111122,1111122' 
DISL,ioos:station:DISL:CATA:1,2014-02-02T10:30:00Z,30.3085,-88.1395,0.0,3.54,73.07,-9999.0,'1111122,1111122,1111122' 
DISL,ioos:station:DISL:CATA:1,2014-02-02T11:00:00Z,30.3085,-88.1395,0.0,3.78,72.38,-9999.0,'1111122,1111122,1111122' 
DISL,ioos:station:DISL:CATA:1,2014-02-02T11:30:00Z,30.3085,-88.1395,0.0,4.03,64.15,-9999.0,'1111122,1111122,1111122' 
DISL,ioos:station:DISL:CATA:1,2014-02-02T12:00:00Z,30.3085,-88.1395,0.0,3.94,71.24,-9999.0,'1111122,1111122,1111122' 
DISL,ioos:station:DISL:CATA:1,2014-02-02T12:30:00Z,30.3085,-88.1395,0.0,4.52,86.2,-9999.0,'1111122,1111122,1111122' 
DISL,ioos:station:DISL:CATA:1,2014-02-02T13:00:00Z,30.3085,-88.1395,0.0,4.41,82.1,-9999.0,'1111122,1111122,1111122' 
DISL,ioos:station:DISL:CATA:1,2014-02-02T13:30:00Z,30.3085,-88.1395,0.0,5.64,109.2,-9999.0,'1111122,1111122,1111122' 
DISL,ioos:station:DISL:CATA:1,2014-02-02T14:00:00Z,30.3085,-88.1395,0.0,5.38,114.7,-9999.0,'1111122,1111122,1111122' 
DISL,ioos:station:DISL:CATA:1,2014-02-02T14:30:00Z,30.3085,-88.1395,0.0,7.1,122.7,-9999.0,'1111122,1111122,1111122' 
DISL,ioos:station:DISL:CATA:1,2014-02-02T15:00:00Z,30.3085,-88.1395,0.0,7.34,124.6,-9999.0,'1111122,1111122,1111122' 
DISL,ioos:station:DISL:CATA:1,2014-02-02T15:30:00Z,30.3085,-88.1395,0.0,5.56,111.9,-9999.0,'1111122,1111122,1111122' 
DISL,ioos:station:DISL:CATA:1,2014-02-02T16:00:00Z,30.3085,-88.1395,0.0,4.77,104.5,-9999.0,'1111122,1111122,1111122' 
DISL,ioos:station:DISL:CATA:1,2014-02-02T16:30:00Z,30.3085,-88.1395,0.0,4.65,109.7,-9999.0,'1111122,1111122,1111122' 
DISL,ioos:station:DISL:CATA:1,2014-02-02T17:00:00Z,30.3085,-88.1395,0.0,4.34,110.3,-9999.0,'1111122,1111122,1111122' 
DISL,ioos:station:DISL:CATA:1,2014-02-02T17:30:00Z,30.3085,-88.1395,0.0,4.75,111.9,-9999.0,'1111122,1111122,1111122' 
DISL,ioos:station:DISL:CATA:1,2014-02-02T18:00:00Z,30.3085,-88.1395,0.0,5.55,118.6,-9999.0,'1111122,1111122,1111122' 
DISL,ioos:station:DISL:CATA:1,2014-02-02T18:30:00Z,30.3085,-88.1395,0.0,5.07,120.7,-9999.0,'1111122,1111122,1111122' 
DISL,ioos:station:DISL:CATA:1,2014-02-02T19:00:00Z,30.3085,-88.1395,0.0,4.71,122.9,-9999.0,'1111122,1111122,1111122' 
DISL,ioos:station:DISL:CATA:1,2014-02-02T19:30:00Z,30.3085,-88.1395,0.0,3.4,120.3,-9999.0,'1111122,1111122,1111122' 
DISL,ioos:station:DISL:CATA:1,2014-02-02T20:00:00Z,30.3085,-88.1395,0.0,3.98,132.5,-9999.0,'1111122,1111122,1111122' 
DISL,ioos:station:DISL:CATA:1,2014-02-02T20:30:00Z,30.3085,-88.1395,0.0,4.24,132.4,-9999.0,'1111122,1111122,1111122' 
DISL,ioos:station:DISL:CATA:1,2014-02-02T21:00:00Z,30.3085,-88.1395,0.0,2.9,125.9,-9999.0,'1111122,1111122,1111122' 
DISL,ioos:station:DISL:CATA:1,2014-02-02T21:30:00Z,30.3085,-88.1395,0.0,4.04,124.9,-9999.0,'1111122,1111122,1111122' 
DISL,ioos:station:DISL:CATA:1,2014-02-02T22:00:00Z,30.3085,-88.1395,0.0,3.19,126.6,-9999.0,'1111122,1111122,1111122' 
DISL,ioos:station:DISL:CATA:1,2014-02-02T22:30:00Z,30.3085,-88.1395,0.0,5.61,133.6,-9999.0,'1111122,1111122,1111122' 
DISL,ioos:station:DISL:CATA:1,2014-02-02T23:00:00Z,30.3085,-88.1395,0.0,5.19,134.7,-9999.0,'1111122,1111122,1111122' 
DISL,ioos:station:DISL:CATA:1,2014-02-02T23:30:00Z,30.3085,-88.1395,0.0,4.03,124.4,-9999.0,'1111122,1111122,1111122' 
DISL,ioos:station:DISL:CATA:1,2014-02-03T00:00:00Z,30.3085,-88.1395,0.0,4.84,131.6,-9999.0,'1111122,1111122,1111122' 
DISL,ioos:station:DISL:CATA:1,2014-02-03T00:30:00Z,30.3085,-88.1395,0.0,6.29,144.2,-9999.0,'1111122,1111122,1111122' 
DISL,ioos:station:DISL:CATA:1,2014-02-03T01:00:00Z,30.3085,-88.1395,0.0,5.41,141.0,-9999.0,'1111122,1111122,1111122' 
DISL,ioos:station:DISL:CATA:1,2014-02-03T01:30:00Z,30.3085,-88.1395,0.0,8.04,157.2,-9999.0,'1111122,1111122,1111122' 
DISL,ioos:station:DISL:CATA:1,2014-02-03T02:00:00Z,30.3085,-88.1395,0.0,7.97,162.0,-9999.0,'1111122,1111122,1111122' 
DISL,ioos:station:DISL:CATA:1,2014-02-03T02:30:00Z,30.3085,-88.1395,0.0,8.16,170.7,-9999.0,'1111122,1111122,1111122' 
DISL,ioos:station:DISL:CATA:1,2014-02-03T03:00:00Z,30.3085,-88.1395,0.0,6.21,179.2,-9999.0,'1111122,1111122,1111122' 
DISL,ioos:station:DISL:CATA:1,2014-02-03T03:30:00Z,30.3085,-88.1395,0.0,6.09,185.2,-9999.0,'1111122,1111122,1111122' 
DISL,ioos:station:DISL:CATA:1,2014-02-03T04:00:00Z,30.3085,-88.1395,0.0,5.72,183.3,-9999.0,'1111122,1111122,1111122' 
DISL,ioos:station:DISL:CATA:1,2014-02-03T04:30:00Z,30.3085,-88.1395,0.0,5.86,183.5,-9999.0,'1111122,1111122,1111122' 
DISL,ioos:station:DISL:CATA:1,2014-02-03T05:00:00Z,30.3085,-88.1395,0.0,5.75,192.7,-9999.0,'1111122,1111122,1111122' 
DISL,ioos:station:DISL:CATA:1,2014-02-03T05:30:00Z,30.3085,-88.1395,0.0,6.03,192.7,-9999.0,'1111122,1111122,1111122' 
DISL,ioos:station:DISL:CATA:1,2014-02-03T06:00:00Z,30.3085,-88.1395,0.0,6.54,192.3,-9999.0,'1111122,1111122,1111122' 
DISL,ioos:station:DISL:CATA:1,2014-02-03T06:30:00Z,30.3085,-88.1395,0.0,6.99,190.8,-9999.0,'1111122,1111122,1111122' 
DISL,ioos:station:DISL:CATA:1,2014-02-03T07:00:00Z,30.3085,-88.1395,0.0,7.21,193.6,-9999.0,'1111122,1111122,1111122' 
DISL,ioos:station:DISL:CATA:1,2014-02-03T07:30:00Z,30.3085,-88.1395,0.0,6.72,197.0,-9999.0,'1111122,1111122,1111122' 
DISL,ioos:station:DISL:CATA:1,2014-02-03T08:00:00Z,30.3085,-88.1395,0.0,6.07,192.1,-9999.0,'1111122,1111122,1111122' 
DISL,ioos:station:DISL:CATA:1,2014-02-03T08:30:00Z,30.3085,-88.1395,0.0,5.97,195.3,-9999.0,'1111122,1111122,1111122' 
DISL,ioos:station:DISL:CATA:1,2014-02-03T09:00:00Z,30.3085,-88.1395,0.0,6.03,205.2,-9999.0,'1111122,1111122,1111122' 
DISL,ioos:station:DISL:CATA:1,2014-02-03T09:30:00Z,30.3085,-88.1395,0.0,5.48,209.8,-9999.0,'1111122,1111122,1111122' 
DISL,ioos:station:DISL:CATA:1,2014-02-03T10:00:00Z,30.3085,-88.1395,0.0,7.6,264.5,-9999.0,'1111122,1111122,1111122' 
DISL,ioos:station:DISL:CATA:1,2014-02-03T10:30:00Z,30.3085,-88.1395,0.0,4.48,257.4,-9999.0,'1111122,1111122,1111122' 
DISL,ioos:station:DISL:CATA:1,2014-02-03T11:00:00Z,30.3085,-88.1395,0.0,2.94,303.7,-9999.0,'1111122,1111122,1111122' 
DISL,ioos:station:DISL:CATA:1,2014-02-03T11:30:00Z,30.3085,-88.1395,0.0,2.26,331.2,-9999.0,'1111122,1111122,1111122' 
DISL,ioos:station:DISL:CATA:1,2014-02-03T12:00:00Z,30.3085,-88.1395,0.0,3.81,347.7,-9999.0,'1111122,1111122,1111122' 
DISL,ioos:station:DISL:CATA:1,2014-02-03T12:30:00Z,30.3085,-88.1395,0.0,4.92,345.8,-9999.0,'1111122,1111122,1111122' 
DISL,ioos:station:DISL:CATA:1,2014-02-03T13:00:00Z,30.3085,-88.1395,0.0,4.7,337.1,-9999.0,'1111122,1111122,1111122' 
DISL,ioos:station:DISL:CATA:1,2014-02-03T13:30:00Z,30.3085,-88.1395,0.0,6.1,4.2,-9999.0,'1111122,1111122,1111122' 
DISL,ioos:station:DISL:CATA:1,2014-02-03T14:00:00Z,30.3085,-88.1395,0.0,6.91,3.943,-9999.0,'1111122,1111122,1111122' 
DISL,ioos:station:DISL:CATA:1,2014-02-03T14:30:00Z,30.3085,-88.1395,0.0,6.46,4.414,-9999.0,'1111122,1111122,1111122' 
DISL,ioos:station:DISL:CATA:1,2014-02-03T15:00:00Z,30.3085,-88.1395,0.0,6.93,10.21,-9999.0,'1111122,1111122,1111122' 
DISL,ioos:station:DISL:CATA:1,2014-02-03T15:30:00Z,30.3085,-88.1395,0.0,6.66,12.18,-9999.0,'1111122,1111122,1111122' 
DISL,ioos:station:DISL:CATA:1,2014-02-03T16:00:00Z,30.3085,-88.1395,0.0,7.89,26.33,-9999.0,'1111122,1111122,1111122' 
DISL,ioos:station:DISL:CATA:1,2014-02-03T16:30:00Z,30.3085,-88.1395,0.0,7.56,31.06,-9999.0,'1111122,1111122,1111122' 
DISL,ioos:station:DISL:CATA:1,2014-02-03T17:00:00Z,30.3085,-88.1395,0.0,7.71,29.27,-9999.0,'1111122,1111122,1111122' 
DISL,ioos:station:DISL:CATA:1,2014-02-03T17:30:00Z,30.3085,-88.1395,0.0,7.89,32.92,-9999.0,'1111122,1111122,1111122' 
DISL,ioos:station:DISL:CATA:1,2014-02-03T18:00:00Z,30.3085,-88.1395,0.0,8.54,36.84,-9999.0,'1111122,1111122,1111122' 
DISL,ioos:station:DISL:CATA:1,2014-02-03T18:30:00Z,30.3085,-88.1395,0.0,7.26,33.6,-9999.0,'1111122,1111122,1111122' 
DISL,ioos:station:DISL:CATA:1,2014-02-03T19:00:00Z,30.3085,-88.1395,0.0,5.95,26.75,-9999.0,'1111122,1111122,1111122' 
DISL,ioos:station:DISL:CATA:1,2014-02-03T19:30:00Z,30.3085,-88.1395,0.0,6.52,30.77,-9999.0,'1111122,1111122,1111122' 
DISL,ioos:station:DISL:CATA:1,2014-02-03T20:00:00Z,30.3085,-88.1395,0.0,6.19,35.93,-9999.0,'1111122,1111122,1111122' 
DISL,ioos:station:DISL:CATA:1,2014-02-03T20:30:00Z,30.3085,-88.1395,0.0,6.02,30.34,-9999.0,'1111122,1111122,1111122' 
DISL,ioos:station:DISL:CATA:1,2014-02-03T21:00:00Z,30.3085,-88.1395,0.0,6.06,23.09,-9999.0,'1111122,1111122,1111122' 
DISL,ioos:station:DISL:CATA:1,2014-02-03T21:30:00Z,30.3085,-88.1395,0.0,6.33,15.96,-9999.0,'1111122,1111122,1111122' 
DISL,ioos:station:DISL:CATA:1,2014-02-03T22:00:00Z,30.3085,-88.1395,0.0,6.27,18.05,-9999.0,'1111122,1111122,1111122' 
DISL,ioos:station:DISL:CATA:1,2014-02-03T22:30:00Z,30.3085,-88.1395,0.0,6.77,14.65,-9999.0,'1111122,1111122,1111122' 
DISL,ioos:station:DISL:CATA:1,2014-02-03T23:00:00Z,30.3085,-88.1395,0.0,6.7,19.8,-9999.0,'1111122,1111122,1111122' 
DISL,ioos:station:DISL:CATA:1,2014-02-03T23:30:00Z,30.3085,-88.1395,0.0,7.32,13.64,-9999.0,'1111122,1111122,1111122' 
DISL,ioos:station:DISL:CATA:1,2014-02-04T00:00:00Z,30.3085,-88.1395,0.0,7.19,17.0,-9999.0,'1111122,1111122,1111122' 
DISL,ioos:station:DISL:CATA:1,2014-02-04T00:30:00Z,30.3085,-88.1395,0.0,6.51,19.45,-9999.0,'1111122,1111122,1111122' 
DISL,ioos:station:DISL:CATA:1,2014-02-04T01:00:00Z,30.3085,-88.1395,0.0,5.76,22.08,-9999.0,'1111122,1111122,1111122' 
DISL,ioos:station:DISL:CATA:1,2014-02-04T01:30:00Z,30.3085,-88.1395,0.0,5.56,15.52,-9999.0,'1111122,1111122,1111122' 
DISL,ioos:station:DISL:CATA:1,2014-02-04T02:00:00Z,30.3085,-88.1395,0.0,5.22,8.85,-9999.0,'1111122,1111122,1111122' 
DISL,ioos:station:DISL:CATA:1,2014-02-04T02:30:00Z,30.3085,-88.1395,0.0,5.62,14.79,-9999.0,'1111122,1111122,1111122' 
DISL,ioos:station:DISL:CATA:1,2014-02-04T03:00:00Z,30.3085,-88.1395,0.0,7.13,29.65,-9999.0,'1111122,1111122,1111122' 
DISL,ioos:station:DISL:CATA:1,2014-02-04T03:30:00Z,30.3085,-88.1395,0.0,8.09,23.44,-9999.0,'1111122,1111122,1111122' 
DISL,ioos:station:DISL:CATA:1,2014-02-04T04:00:00Z,30.3085,-88.1395,0.0,6.82,18.04,-9999.0,'1111122,1111122,1111122' 
DISL,ioos:station:DISL:CATA:1,2014-02-04T04:30:00Z,30.3085,-88.1395,0.0,6.91,17.11,-9999.0,'1111122,1111122,1111122' 
DISL,ioos:station:DISL:CATA:1,2014-02-04T05:00:00Z,30.3085,-88.1395,0.0,7.26,20.94,-9999.0,'1111122,1111122,1111122' 
DISL,ioos:station:DISL:CATA:1,2014-02-04T05:30:00Z,30.3085,-88.1395,0.0,7.34,23.56,-9999.0,'1111122,1111122,1111122' 
DISL,ioos:station:DISL:CATA:1,2014-02-04T06:00:00Z,30.3085,-88.1395,0.0,7.28,18.29,-9999.0,'1111122,1111122,1111122' 
DISL,ioos:station:DISL:CATA:1,2014-02-04T06:30:00Z,30.3085,-88.1395,0.0,6.52,24.24,-9999.0,'1111122,1111122,1111122' 
DISL,ioos:station:DISL:CATA:1,2014-02-04T07:00:00Z,30.3085,-88.1395,0.0,5.99,27.87,-9999.0,'1111122,1111122,1111122' 
DISL,ioos:station:DISL:CATA:1,2014-02-04T07:30:00Z,30.3085,-88.1395,0.0,6.93,37.99,-9999.0,'1111122,1111122,1111122' 
DISL,ioos:station:DISL:CATA:1,2014-02-04T08:00:00Z,30.3085,-88.1395,0.0,7.28,37.61,-9999.0,'1111122,1111122,1111122' 
DISL,ioos:station:DISL:CATA:1,2014-02-04T08:30:00Z,30.3085,-88.1395,0.0,7.13,37.46,-9999.0,'1111122,1111122,1111122' 
DISL,ioos:station:DISL:CATA:1,2014-02-04T09:00:00Z,30.3085,-88.1395,0.0,6.85,38.91,-9999.0,'1111122,1111122,1111122' 
DISL,ioos:station:DISL:CATA:1,2014-02-04T09:30:00Z,30.3085,-88.1395,0.0,6.61,34.05,-9999.0,'1111122,1111122,1111122' 
DISL,ioos:station:DISL:CATA:1,2014-02-04T10:00:00Z,30.3085,-88.1395,0.0,6.7,40.04,-9999.0,'1111122,1111122,1111122' 
DISL,ioos:station:DISL:CATA:1,2014-02-04T10:30:00Z,30.3085,-88.1395,0.0,6.53,44.24,-9999.0,'1111122,1111122,1111122' 
DISL,ioos:station:DISL:CATA:1,2014-02-04T11:00:00Z,30.3085,-88.1395,0.0,6.25,53.68,-9999.0,'1111122,1111122,1111122' 
DISL,ioos:station:DISL:CATA:1,2014-02-04T11:30:00Z,30.3085,-88.1395,0.0,5.24,44.85,-9999.0,'1111122,1111122,1111122' 
DISL,ioos:station:DISL:CATA:1,2014-02-04T12:00:00Z,30.3085,-88.1395,0.0,4.96,51.29,-9999.0,'1111122,1111122,1111122' 
DISL,ioos:station:DISL:CATA:1,2014-02-04T12:30:00Z,30.3085,-88.1395,0.0,4.4,65.18,-9999.0,'1111122,1111122,1111122' 
DISL,ioos:station:DISL:CATA:1,2014-02-04T13:00:00Z,30.3085,-88.1395,0.0,3.77,68.01,-9999.0,'1111122,1111122,1111122' 
DISL,ioos:station:DISL:CATA:1,2014-02-04T13:30:00Z,30.3085,-88.1395,0.0,3.49,65.45,-9999.0,'1111122,1111122,1111122' 
DISL,ioos:station:DISL:CATA:1,2014-02-04T14:00:00Z,30.3085,-88.1395,0.0,3.6,59.96,-9999.0,'1111122,1111122,1111122' 
DISL,ioos:station:DISL:CATA:1,2014-02-04T14:30:00Z,30.3085,-88.1395,0.0,3.55,68.04,-9999.0,'1111122,1111122,1111122' 
DISL,ioos:station:DISL:CATA:1,2014-02-04T15:00:00Z,30.3085,-88.1395,0.0,3.85,73.14,-9999.0,'1111122,1111122,1111122' 
DISL,ioos:station:DISL:CATA:1,2014-02-04T15:30:00Z,30.3085,-88.1395,0.0,3.38,73.88,-9999.0,'1111122,1111122,1111122' 
DISL,ioos:station:DISL:CATA:1,2014-02-04T16:00:00Z,30.3085,-88.1395,0.0,2.38,67.93,-9999.0,'1111122,1111122,1111122' 
DISL,ioos:station:DISL:CATA:1,2014-02-04T16:30:00Z,30.3085,-88.1395,0.0,2.68,52.01,-9999.0,'1111122,1111122,1111122' 
DISL,ioos:station:DISL:CATA:1,2014-02-04T17:00:00Z,30.3085,-88.1395,0.0,2.29,32.16,-9999.0,'1111122,1111122,1111122' 
DISL,ioos:station:DISL:CATA:1,2014-02-04T17:30:00Z,30.3085,-88.1395,0.0,2.08,55.34,-9999.0,'1111122,1111122,1111122' 
DISL,ioos:station:DISL:CATA:1,2014-02-04T18:00:00Z,30.3085,-88.1395,0.0,2.18,61.02,-9999.0,'1111122,1111122,1111122' 
DISL,ioos:station:DISL:CATA:1,2014-02-04T18:30:00Z,30.3085,-88.1395,0.0,1.41,86.8,-9999.0,'1111122,1111122,1111122' 
DISL,ioos:station:DISL:CATA:1,2014-02-04T19:00:00Z,30.3085,-88.1395,0.0,2.56,78.97,-9999.0,'1111122,1111122,1111122' 
DISL,ioos:station:DISL:CATA:1,2014-02-04T19:30:00Z,30.3085,-88.1395,0.0,2.57,95.1,-9999.0,'1111122,1111122,1111122' 
DISL,ioos:station:DISL:CATA:1,2014-02-04T20:00:00Z,30.3085,-88.1395,0.0,3.11,96.0,-9999.0,'1111122,1111122,1111122' 
DISL,ioos:station:DISL:CATA:1,2014-02-04T20:30:00Z,30.3085,-88.1395,0.0,3.61,149.5,-9999.0,'1111122,1111122,1111122' 
DISL,ioos:station:DISL:CATA:1,2014-02-04T21:00:00Z,30.3085,-88.1395,0.0,1.63,149.1,-9999.0,'1111122,1111122,1111122' 
DISL,ioos:station:DISL:CATA:1,2014-02-04T21:30:00Z,30.3085,-88.1395,0.0,3.26,131.1,-9999.0,'1111122,1111122,1111122' 
DISL,ioos:station:DISL:CATA:1,2014-02-04T22:00:00Z,30.3085,-88.1395,0.0,3.28,109.7,-9999.0,'1111122,1111122,1111122' 
DISL,ioos:station:DISL:CATA:1,2014-02-04T22:30:00Z,30.3085,-88.1395,0.0,3.94,111.9,-9999.0,'1111122,1111122,1111122' 
DISL,ioos:station:DISL:CATA:1,2014-02-04T23:00:00Z,30.3085,-88.1395,0.0,4.12,130.0,-9999.0,'1111122,1111122,1111122' 
DISL,ioos:station:DISL:CATA:1,2014-02-04T23:30:00Z,30.3085,-88.1395,0.0,5.26,144.2,-9999.0,'1111122,1111122,1111122' 
DISL,ioos:station:DISL:CATA:1,2014-02-05T00:00:00Z,30.3085,-88.1395,0.0,5.36,145.7,-9999.0,'1111122,1111122,1111122' 
DISL,ioos:station:DISL:CATA:1,2014-02-05T00:30:00Z,30.3085,-88.1395,0.0,4.14,137.5,-9999.0,'1111122,1111122,1111122' 
DISL,ioos:station:DISL:CATA:1,2014-02-05T01:00:00Z,30.3085,-88.1395,0.0,7.0,156.2,-9999.0,'1111122,1111122,1111122' 
DISL,ioos:station:DISL:CATA:1,2014-02-05T01:30:00Z,30.3085,-88.1395,0.0,8.29,157.8,-9999.0,'1111122,1111122,1111122' 
DISL,ioos:station:DISL:CATA:1,2014-02-05T02:00:00Z,30.3085,-88.1395,0.0,9.23,158.0,-9999.0,'1111122,1111122,1111122' 
DISL,ioos:station:DISL:CATA:1,2014-02-05T02:30:00Z,30.3085,-88.1395,0.0,9.81,167.2,-9999.0,'1111122,1111122,1111122' 
DISL,ioos:station:DISL:CATA:1,2014-02-05T03:00:00Z,30.3085,-88.1395,0.0,9.2,171.6,-9999.0,'1111122,1111122,1111122' 
DISL,ioos:station:DISL:CATA:1,2014-02-05T03:30:00Z,30.3085,-88.1395,0.0,7.53,179.7,-9999.0,'1111122,1111122,1111122' 
DISL,ioos:station:DISL:CATA:1,2014-02-05T04:00:00Z,30.3085,-88.1395,0.0,11.08,171.3,-9999.0,'1111122,1111122,1111122' 
DISL,ioos:station:DISL:CATA:1,2014-02-05T04:30:00Z,30.3085,-88.1395,0.0,9.24,175.4,-9999.0,'1111122,1111122,1111122' 